STAVANGER/SOLA(AFB) current weather conditions

sailwx.info

Wind from 190 at 15 knots

Air temperature 7.0° C
Visibility: greater than 4.9 NM
Dewpoint 6.0° C
Present weather: Drizzle rain.

Last reported at 2019-Dec-05 19:50 UTC.
Time now 2019-Dec-05 20:37 UTC

Location: N 58°53' E 005°38'.
View on Google Maps.

See reports from other nearby stations

  
Tides and Currents Weather Stations Pressure Air Temp Water Temp Dewpoint Dewpoint Depression Visibility Wind Speed Wind Dir Waves Ship Positions
date/time (UTC)wind fromknots sea level pressurealtimeterstation pressurevisibilityair tempwater tempwave heightnotes
2019-Dec-05 19:50 190 15 4.9 7.0 Drizzle rain.
2019-Dec-05 19:20 210 19 4.9 8.0 Drizzle rain.
2019-Dec-05 18:50 210 14 gusting 27 4.9 8.0 Drizzle rain.
2019-Dec-05 18:20 210 15 4.3 8.0 Light rain drizzle.
2019-Dec-05 17:50 210 19 4.9 8.0 Light rain drizzle.
2019-Dec-05 17:20 210 19 4.9 8.0 Light rain drizzle.
2019-Dec-05 16:50 210 17 4.9 8.0 Light rain drizzle.
2019-Dec-05 16:20 210 18 4.9 8.0 Light rain drizzle.
2019-Dec-05 15:50 210 17 4.9 8.0 Light rain drizzle.
2019-Dec-05 15:20 210 19 3.8 8.0 Light rain drizzle.
2019-Dec-05 14:50 220 19 3.8 8.0 Light rain drizzle.
2019-Dec-05 14:20 210 18 gusting 27 3.8 8.0 Light rain drizzle.
2019-Dec-05 13:50 210 20 4.3 8.0 Light rain drizzle.
2019-Dec-05 13:20 220 18 5.4 9.0 Showers in the vicinity.
2019-Dec-05 12:50 210 19 5.4 9.0 Showers in the vicinity.
2019-Dec-05 12:20 210 19 gusting 28 5.4 9.0 Showers in the vicinity.
2019-Dec-05 11:50 210 20 gusting 31 5.4 9.0 Showers in the vicinity.
2019-Dec-05 11:20 210 19 5.4 9.0 Showers in the vicinity.
2019-Dec-05 10:50 210 19 5.4 9.0
2019-Dec-05 10:20 210 15 5.4 8.0 Showers in the vicinity.
2019-Dec-05 09:50 220 19 5.4 8.0 Showers in the vicinity.
2019-Dec-05 09:20 220 19 5.4 8.0 Showers in the vicinity.
2019-Dec-05 08:50 220 19 5.4 8.0 Showers in the vicinity.
2019-Dec-05 08:20 230 20 5.4 8.0 Showers in the vicinity.
2019-Dec-05 07:50 230 20 5.4 8.0
2019-Dec-05 07:20 220 19 5.4 8.0
2019-Dec-05 06:50 230 19 5.4 8.0
2019-Dec-05 06:20 220 17 5.4 8.0
2019-Dec-05 05:50 230 17 5.4 8.0
2019-Dec-05 05:20 220 17 5.4 8.0
2019-Dec-05 04:50 230 17 4.9 8.0 Light rain.
2019-Dec-05 04:20 220 17 5.4 8.0
2019-Dec-05 03:50 220 13 4.9 8.0
2019-Dec-05 03:20 220 14 4.9 8.0
2019-Dec-05 02:50 220 12 4.9 8.0
2019-Dec-05 02:20 220 11 5.4 8.0
2019-Dec-05 01:50 220 12 5.4 8.0
2019-Dec-05 01:20 210 12 5.4 8.0
2019-Dec-05 00:50 210 12 5.4 8.0
2019-Dec-05 00:20 210 12 4.9 8.0
2019-Dec-04 23:50 210 11 4.9 9.0
2019-Dec-04 23:20 210 11 4.9 9.0
2019-Dec-04 22:50 210 12 4.9 9.0
2019-Dec-04 22:20 220 12 4.9 9.0
2019-Dec-04 21:50 220 13 4.9 9.0
2019-Dec-04 21:20 210 13 4.9 9.0 Light drizzle.
2019-Dec-04 20:50 220 14 4.9 9.0 Light drizzle.
2019-Dec-04 20:20 200 12 4.9 8.0 Light rain drizzle.
2019-Dec-04 19:50 190 13 4.3 8.0 Light rain drizzle.
2019-Dec-04 19:20 200 12 4.3 8.0 Light rain drizzle.
2019-Dec-04 18:50 190 12 5.4 8.0 Light drizzle.
2019-Dec-04 18:20 190 13 5.4 8.0 Light drizzle.
2019-Dec-04 17:50 200 12 5.4 8.0 Light drizzle.
2019-Dec-04 17:20 200 11 5.4 8.0
2019-Dec-04 16:50 190 12 5.4 8.0
2019-Dec-04 16:20 190 11 5.4 8.0
2019-Dec-04 15:50 190 13 5.4 8.0
2019-Dec-04 15:20 190 12 5.4 8.0
2019-Dec-04 14:50 170 15 5.4 8.0
2019-Dec-04 14:20 180 13 5.4 8.0
2019-Dec-04 13:50 170 13 5.4 8.0
2019-Dec-04 13:20 170 13 5.4 8.0
2019-Dec-04 12:50 160 11 5.4 8.0
2019-Dec-04 12:20 160 11 5.4 8.0
2019-Dec-04 11:50 170 12 5.4 8.0
2019-Dec-04 11:20 170 12 5.4 8.0
2019-Dec-04 10:50 160 11 5.4 8.0
2019-Dec-04 10:20 160 8 5.4 8.0
2019-Dec-04 09:50 150 7 5.4 7.0
2019-Dec-04 09:20 140 8 5.4 7.0
2019-Dec-04 08:50 140 9 5.4 7.0
2019-Dec-04 08:20 150 6 5.4 6.0
2019-Dec-04 07:50 140 6 5.4 6.0
2019-Dec-04 07:20 160 6 5.4 6.0
2019-Dec-04 06:50 180 5 5.4 6.0
2019-Dec-04 06:20 160 5 5.4 6.0
2019-Dec-04 05:50 160 4 5.4 6.0
2019-Dec-04 05:20 170 4 5.4 5.0
2019-Dec-04 04:50 140 6 5.4 6.0
2019-Dec-04 04:20 150 4 5.4 6.0
2019-Dec-04 03:50 120 4 5.4 6.0
2019-Dec-04 02:50 170 4 5.4 6.0
2019-Dec-04 01:50 4.9 7.0
2019-Dec-04 00:50 140 1 5.4 6.0 Mist.
2019-Dec-03 23:50 5.4 7.0
2019-Dec-03 23:20 5.4 7.0
2019-Dec-03 22:50 5.4 8.0
2019-Dec-03 22:20 310 2 5.4 8.0
2019-Dec-03 21:50 310 5 5.4 8.0
2019-Dec-03 21:20 300 7 4.9 8.0
2019-Dec-03 20:50 300 7 4.9 8.0 Light drizzle.
2019-Dec-03 20:20 4.3 7.0 Light drizzle.